Flag for Czech Republic Weather past 2 weeks in Liberec, Czech Republic

Now
88 °F

Passing clouds.


Feels Like: 86 °F
Forecast: 50 / 66 °F
Wind: 3 mph from South

Location: Liberec

Current Time: Sep 1, 2015 at 5:00:54 PM

Latest Report: Sep 1, 2015 at 4:00 PM


Visibility: 25 mi

Pressure: 29.68 "Hg

Humidity: 29%

Dew point: 52 °F

Location of LiberecLocation

Historic Weather in Liberec — Graph

°F

Liberec temperature yesterday

Maximum temperature yesterday: 90 °F (at 3:00 PM)
Minimum temperature yesterday: 62 °F (at 5:00 AM)
Average temperature yesterday: 76 °F

Past Weeks' High & Low Weather Summary

 TemperatureHumidityPressure
High90 °F (Aug 31, 3:00 PM)98% (Aug 18, 5:00 AM)30.32 "Hg (Aug 18, 5:00 AM)
Low46 °F (Aug 23, 5:00 AM)27% (Aug 21, 6:00 PM)29.70 "Hg (Sep 1, 3:00 PM)
Average66 °F67%30.03 "Hg
* Reported Aug 17 3:00 PM — Sep 1 3:00 PM, Liberec, Weather by CustomWeather, © 2015

Note: Actual official high and low records may vary slightly from our data, if they occured in-between our weather recording intervals... More about our weather records

Advertising

Liberec weather history for previous 24 hours

 ConditionsComfort  
Time TempWeatherWind HumidityBarometerVisibility
3:00 PM
Tue, Sep 1
88 °FScattered clouds.3 mph27%29.70 "Hg25 mi
2:00 PM88 °FPassing clouds.2 mph27%29.71 "Hg22 mi
1:00 PM87 °FPassing clouds.1 mph27%29.72 "Hg22 mi
12:00 PM86 °FPassing clouds.2 mph30%29.74 "Hg22 mi
11:00 AM84 °FPassing clouds.1 mph31%29.75 "Hg22 mi
10:00 AM81 °FSunny.2 mph35%29.76 "Hg22 mi
9:00 AM78 °FSunny.2 mph40%29.76 "Hg22 mi
8:00 AM72 °FPassing clouds.1 mph56%29.78 "Hg19 mi
7:00 AM64 °FMild.1 mph69%29.81 "Hg12 mi
6:00 AM64 °FMild.1 mph68%29.81 "Hg12 mi
4:00 AM73 °FMild.3 mph49%29.77 "Hg12 mi
3:00 AM72 °FMild.2 mph52%29.79 "Hg12 mi
2:00 AM72 °FMild.3 mph55%29.80 "Hg12 mi
1:00 AM72 °FMild.3 mph55%29.81 "Hg12 mi
12:00 AM75 °FMild.3 mph50%29.81 "Hg12 mi
10:00 PM
Mon, Aug 31
74 °FClear.2 mph60%29.83 "Hg14 mi
9:00 PM73 °FPassing clouds.1 mph60%29.84 "Hg16 mi
8:00 PM75 °FPassing clouds.2 mph54%29.82 "Hg16 mi
7:00 PM84 °FWarm.1 mph41%29.80 "Hg12 mi
6:00 PM88 °FHot.2 mph34%29.81 "Hg12 mi
5:00 PM90 °FPassing clouds.2 mph27%29.81 "Hg22 mi
Weather by CustomWeather, © 2015

See weather overviewHow to use our weather pages